Location: Unspecified
(35.7250°N, 0.0000°E)
Time: 17:02:21
(UTC+00:00)

SR - Visible Passes

Search period start: 20 June 2019 00:00
Search period end: 30 June 2019 00:00
Orbit: 582 x 874 km, 66.7° (Epoch: 20 June)

Date Brightness Start Highest point End Pass type
(mag) Time Alt. Az. Time Alt. Az. Time Alt. Az.
20 Jun ? 03:05:36 13° SSE 03:08:44 28° ESE 03:12:24 10° NE visible
21 Jun ? 02:17:58 10° SE 02:19:26 12° ESE 02:20:53 10° E visible
21 Jun ? 03:57:02 11° SW 04:00:55 48° WNW 04:05:05 10° NNE visible
22 Jun ? 03:08:59 25° S 03:11:19 67° ESE 03:15:33 10° NNE visible
23 Jun ? 02:20:53 24° SE 02:21:53 26° ESE 02:25:26 10° NE visible
23 Jun ? 04:00:25 10° WSW 04:03:49 23° NW 04:07:16 10° N visible
24 Jun ? 01:32:43 11° ESE 01:32:43 11° ESE 01:33:28 10° E visible
24 Jun ? 03:12:08 29° WSW 03:14:02 53° WNW 03:18:14 10° NNE visible
25 Jun ? 02:23:56 56° SSE 02:24:27 61° ESE 02:28:40 10° NE visible
25 Jun ? 04:05:15 10° WNW 04:06:54 12° NW 04:08:32 10° NNW visible
26 Jun ? 01:35:41 23° E 01:35:41 23° E 01:38:29 10° NE visible
26 Jun ? 03:15:06 19° W 03:16:55 25° NW 03:20:28 10° N visible
27 Jun ? 02:26:49 55° W 02:27:09 57° WNW 02:31:23 10° NNE visible
28 Jun ? 01:38:29 45° ENE 01:38:29 45° ENE 01:41:46 10° NE visible
28 Jun ? 03:18:03 10° WNW 03:19:58 13° NW 03:21:56 10° NNW visible
29 Jun ? 00:50:07 17° ENE 00:50:07 17° ENE 00:51:31 10° ENE visible
29 Jun ? 02:29:31 26° WNW 02:30:01 26° NW 02:33:41 10° N visible
